Overview Statistics Trail Chart Weather Telemetry Raw packets
 

This is the latest recevied weather packets stored in our database for station/object KD0MAC. If no packets are shown the sender has not sent any weather packets the latest 10 day(s).

<< 79 80 81 82 83 84 85 >>
Time Temp. Humidity Pressure Rain* Wind** Luminosity Snow
1788185830 23.89° C 73% 1015.6 hPa 0 mm - 182 W/m² -
1788185529 23.89° C 74% 1015.6 hPa 0 mm - 169 W/m² -
1788185230 23.33° C 76% 1015.6 hPa 0 mm - 156 W/m² -
1788184930 22.78° C 79% 1015.6 hPa 0 mm - 144 W/m² -
1788184629 22.78° C 79% 1015.6 hPa 0 mm - 82 W/m² -
1788184330 22.78° C 77% 1015.2 hPa 0 mm - 55 W/m² -
1788184030 22.78° C 77% 1014.9 hPa 0 mm - 104 W/m² -
1788183729 22.22° C 79% 1014.9 hPa 0 mm - 61 W/m² -
1788183429 21.67° C 81% 1014.9 hPa 0 mm - 45 W/m² -
1788183130 21.67° C 82% 1014.9 hPa 0 mm - 42 W/m² -
1788182830 21.67° C 82% 1014.9 hPa 0 mm - 41 W/m² -
1788182530 21.67° C 81% 1014.9 hPa 0 mm - 36 W/m² -
1788182229 21.67° C 82% 1014.9 hPa 0 mm - 40 W/m² -
1788181929 21.11° C 82% 1014.6 hPa 0 mm - 35 W/m² -
1788181633 21.11° C 83% 1014.6 hPa 0 mm - 31 W/m² -
1788181330 21.11° C 84% 1014.6 hPa 0 mm - 26 W/m² -
1788181029 20.56° C 84% 1014.6 hPa 0 mm - 22 W/m² -
1788180734 21.11° C 84% 1014.2 hPa 0 mm - 24 W/m² -
1788180429 21.11° C 84% 1013.5 hPa 0 mm - 21 W/m² -
1788180144 21.11° C 83% 1013.5 hPa 0 mm - 18 W/m² -
1788179831 21.11° C 82% 1013.5 hPa 0 mm - 15 W/m² -
1788179530 21.11° C 82% 1013.5 hPa 0 mm - 12 W/m² -
1788179229 21.11° C 82% 1013.5 hPa 0 mm - 10 W/m² -
1788178929 21.11° C 83% 1013.5 hPa 0 mm - 8 W/m² -
1788178637 21.11° C 83% 1013.5 hPa 0 mm - 6 W/m² -

* Rain latest hour (hover to see other rain measurements)
** Current wind speed in m/s (hover to see current wind gust speed)